When you browse on this site, cookies collect data to enhance your experience and personalize the content and advertising you see.
Visit our Privacy Policy to learn more. By continuing to use the site, you agree to this use of cookies and data.
  • In Hungary
  • List of Countries
  • For 7 days
  • Water Temperature
  • Weather Map
  • News
  • Weather Widgets
  • user-avatar
    Login

    Hourly Weather Nahuizalco

    Today, 7 December, Saturday

    Time Temperature Precipitation Wind Pressure Humidity
    00:00 +20°C° 0 mm 2 mps 697 mmHg 81%
    01:00 +20°C° 0 mm 2 mps 697 mmHg 81%
    02:00 +20°C° 0 mm 2 mps 696 mmHg 80%
    03:00 +20°C° 0 mm 2 mps 696 mmHg 80%
    04:00 +19°C° 0 mm 2 mps 696 mmHg 80%
    05:00 +19°C° 0 mm 2 mps 696 mmHg 79%
    06:00 +19°C° 0 mm 2 mps 696 mmHg 79%
    07:00 +21°C° 0 mm 2 mps 697 mmHg 73%
    08:00 +23°C° 0 mm 2 mps 698 mmHg 67%
    09:00 +25°C° 0 mm 2 mps 699 mmHg 60%
    10:00 +27°C° 0 mm 2 mps 698 mmHg 56%
    11:00 +28°C° 0 mm 2 mps 698 mmHg 52%
    12:00 +29°C° 0 mm 2 mps 698 mmHg 48%
    13:00 +29°C° 0 mm 2 mps 697 mmHg 48%
    14:00 +30°C° 0 mm 2 mps 696 mmHg 48%
    15:00 +30°C° 0 mm 2 mps 696 mmHg 47%
    16:00 +27°C° 0 mm 2 mps 696 mmHg 55%
    17:00 +25°C° 0 mm 2 mps 696 mmHg 63%
    18:00 +23°C° 0 mm 1 mps 696 mmHg 70%
    19:00 +23°C° 0 mm 2 mps 696 mmHg 71%
    20:00 +21°C° 0 mm 2 mps 697 mmHg 71%
    21:00 +21°C° 0 mm 2 mps 697 mmHg 71%
    22:00 +20°C° 0 mm 2 mps 697 mmHg 73%
    23:00 +20°C° 0 mm 2 mps 697 mmHg 76%

    Tomorrow, 8 December, Sunday

    Time Temperature Precipitation Wind Pressure Humidity
    00:00 +20°C° 0 mm 2 mps 696 mmHg 78%
    01:00 +20°C° 0 mm 2 mps 696 mmHg 80%
    02:00 +19°C° 0 mm 2 mps 696 mmHg 81%
    03:00 +19°C° 0 mm 2 mps 696 mmHg 82%
    04:00 +19°C° 0 mm 2 mps 696 mmHg 82%
    05:00 +19°C° 0 mm 2 mps 696 mmHg 82%
    06:00 +19°C° 0 mm 2 mps 696 mmHg 82%
    07:00 +21°C° 0 mm 2 mps 697 mmHg 74%
    08:00 +24°C° 0 mm 2 mps 697 mmHg 67%
    09:00 +25°C° 0 mm 2 mps 698 mmHg 60%
    10:00 +27°C° 0 mm 2 mps 698 mmHg 55%
    11:00 +28°C° 0 mm 2 mps 697 mmHg 50%
    12:00 +29°C° 0 mm 2 mps 697 mmHg 46%
    13:00 +29°C° 0 mm 2 mps 696 mmHg 46%
    14:00 +29°C° 0 mm 2 mps 696 mmHg 47%
    15:00 +29°C° 0 mm 2 mps 695 mmHg 48%
    16:00 +27°C° 0 mm 2 mps 695 mmHg 56%
    17:00 +25°C° 0 mm 1 mps 695 mmHg 64%
    18:00 +22°C° 0 mm 1 mps 695 mmHg 72%
    19:00 +22°C° 0 mm 1 mps 695 mmHg 71%
    20:00 +22°C° 0 mm 1 mps 695 mmHg 70%
    21:00 +20°C° 0 mm 2 mps 696 mmHg 69%
    22:00 +20°C° 0 mm 2 mps 695 mmHg 71%
    23:00 +19°C° 0 mm 2 mps 695 mmHg 72%

    Day after tomorrow, 9 December, Monday

    Time Temperature Precipitation Wind Pressure Humidity
    00:00 +19°C° 0 mm 2 mps 695 mmHg 74%
    01:00 +19°C° 0 mm 2 mps 695 mmHg 75%
    02:00 +19°C° 0 mm 2 mps 695 mmHg 77%
    03:00 +18°C° 0 mm 2 mps 694 mmHg 79%
    04:00 +18°C° 0 mm 2 mps 695 mmHg 80%
    05:00 +18°C° 0 mm 2 mps 695 mmHg 82%
    06:00 +18°C° 0 mm 2 mps 695 mmHg 83%
    07:00 +20°C° 0 mm 2 mps 696 mmHg 75%
    08:00 +24°C° 0 mm 1 mps 696 mmHg 67%
    09:00 +26°C° 0 mm 1 mps 697 mmHg 60%
    10:00 +27°C° 0 mm 1 mps 697 mmHg 55%
    11:00 +29°C° 0 mm 2 mps 696 mmHg 51%
    12:00 +30°C° 0 mm 2 mps 696 mmHg 46%
    13:00 +30°C° 0 mm 2 mps 696 mmHg 47%
    14:00 +29°C° 0 mm 2 mps 695 mmHg 48%
    15:00 +29°C° 0 mm 1 mps 694 mmHg 49%
    16:00 +27°C° 0 mm 1 mps 694 mmHg 60%
    17:00 +24°C° 0 mm 1 mps 694 mmHg 71%
    18:00 +22°C° 0 mm 1 mps 694 mmHg 82%
    19:00 +22°C° 0 mm 1 mps 694 mmHg 82%
    20:00 +21°C° 0 mm 1 mps 695 mmHg 83%
    21:00 +21°C° 0 mm 1 mps 695 mmHg 83%
    22:00 +21°C° 0 mm 1 mps 695 mmHg 83%
    23:00 +21°C° 0 mm 1 mps 695 mmHg 84%

    10 December, Tuesday

    Time Temperature Precipitation Wind Pressure Humidity
    00:00 +21°C° 0 mm 1 mps 695 mmHg 84%
    01:00 +21°C° 0 mm 1 mps 694 mmHg 84%
    02:00 +20°C° 0 mm 1 mps 694 mmHg 85%
    03:00 +20°C° 0 mm 1 mps 694 mmHg 85%
    04:00 +20°C° 0 mm 1 mps 694 mmHg 86%
    05:00 +20°C° 0 mm 1 mps 694 mmHg 86%
    06:00 +20°C° 0 mm 1 mps 695 mmHg 87%
    07:00 +22°C° 0 mm 1 mps 695 mmHg 78%
    08:00 +25°C° 0 mm 1 mps 696 mmHg 69%
    09:00 +27°C° 0 mm 1 mps 697 mmHg 61%
    10:00 +28°C° 0 mm 1 mps 696 mmHg 56%
    11:00 +29°C° 0 mm 1 mps 696 mmHg 52%
    12:00 +30°C° 0 mm 2 mps 696 mmHg 48%
    13:00 +30°C° 0 mm 2 mps 695 mmHg 49%
    14:00 +29°C° 0 mm 2 mps 695 mmHg 51%
    15:00 +29°C° 0 mm 2 mps 694 mmHg 52%
    16:00 +27°C° 0 mm 1 mps 694 mmHg 64%
    17:00 +24°C° 0 mm 1 mps 694 mmHg 76%
    18:00 +22°C° 0 mm 1 mps 694 mmHg 88%
    19:00 +22°C° 0 mm 1 mps 694 mmHg 89%
    20:00 +22°C° 0 mm 1 mps 695 mmHg 89%
    21:00 +21°C° 0 mm 1 mps 695 mmHg 89%
    22:00 +21°C° 0 mm 1 mps 695 mmHg 88%
    23:00 +21°C° 0 mm 1 mps 695 mmHg 87%

    11 December, Wednesday

    Time Temperature Precipitation Wind Pressure Humidity
    00:00 +21°C° 0 mm 1 mps 695 mmHg 86%
    01:00 +21°C° 0 mm 1 mps 695 mmHg 85%
    02:00 +21°C° 0 mm 1 mps 694 mmHg 85%
    03:00 +20°C° 0 mm 2 mps 694 mmHg 84%
    04:00 +21°C° 0 mm 1 mps 694 mmHg 85%
    05:00 +21°C° 0 mm 1 mps 695 mmHg 86%
    06:00 +21°C° 0 mm 1 mps 695 mmHg 87%
    07:00 +23°C° 0 mm 1 mps 696 mmHg 79%
    08:00 +25°C° 0 mm 1 mps 697 mmHg 71%
    09:00 +27°C° 0 mm 1 mps 697 mmHg 63%
    10:00 +28°C° 0 mm 1 mps 697 mmHg 58%
    11:00 +30°C° 0 mm 2 mps 697 mmHg 53%
    12:00 +31°C° 0 mm 2 mps 696 mmHg 48%
    13:00 +30°C° 0.2 mm 2 mps 696 mmHg 52%
    14:00 +30°C° 0.2 mm 2 mps 695 mmHg 55%
    15:00 +29°C° 0.2 mm 1 mps 694 mmHg 59%
    16:00 +27°C° 0.2 mm 1 mps 694 mmHg 68%
    17:00 +25°C° 0.2 mm 1 mps 694 mmHg 77%
    18:00 +23°C° 0.2 mm 1 mps 694 mmHg 86%
    19:00 +22°C° 0 mm 1 mps 695 mmHg 85%
    20:00 +22°C° 0 mm 1 mps 695 mmHg 84%
    21:00 +20°C° 0 mm 2 mps 696 mmHg 83%
    22:00 +20°C° 0 mm 2 mps 696 mmHg 82%
    23:00 +20°C° 0 mm 2 mps 695 mmHg 82%

    12 December, Thursday

    Time Temperature Precipitation Wind Pressure Humidity
    00:00 +20°C° 0 mm 2 mps 695 mmHg 81%
    01:00 +20°C° 0 mm 2 mps 695 mmHg 81%
    02:00 +20°C° 0 mm 2 mps 695 mmHg 81%
    03:00 +20°C° 0 mm 2 mps 695 mmHg 80%
    04:00 +20°C° 0 mm 2 mps 695 mmHg 81%
    05:00 +19°C° 0 mm 2 mps 695 mmHg 82%
    06:00 +19°C° 0 mm 3 mps 695 mmHg 82%
    07:00 +21°C° 0 mm 3 mps 696 mmHg 74%
    08:00 +24°C° 0 mm 3 mps 696 mmHg 66%
    09:00 +26°C° 0 mm 3 mps 697 mmHg 58%
    10:00 +28°C° 0 mm 3 mps 697 mmHg 53%
    11:00 +29°C° 0 mm 3 mps 697 mmHg 48%
    12:00 +30°C° 0 mm 3 mps 696 mmHg 44%
    13:00 +30°C° 0 mm 3 mps 696 mmHg 44%
    14:00 +30°C° 0 mm 2 mps 695 mmHg 44%
    15:00 +30°C° 0 mm 2 mps 695 mmHg 44%
    16:00 +28°C° 0 mm 2 mps 694 mmHg 53%
    17:00 +25°C° 0 mm 1 mps 694 mmHg 62%
    18:00 +23°C° 0 mm 1 mps 694 mmHg 72%
    19:00 +22°C° 0 mm 1 mps 694 mmHg 72%
    20:00 +21°C° 0 mm 2 mps 695 mmHg 72%
    21:00 +20°C° 0 mm 2 mps 695 mmHg 71%
    22:00 +20°C° 0 mm 2 mps 695 mmHg 73%
    23:00 +20°C° 0 mm 2 mps 695 mmHg 74%
    Show more